Location: Overspoor
(51.4747°N, 5.6641°E)
Time: 08:22:37
(UTC+02:00)

YUBILEINY - Pass Details

Date: 09 July 2022
Orbit: 1478 x 1509 km, 82.5° (Epoch: 07 August)

Event Time Altitude Azimuth Distance (km) Brightness Sun altitude
Rises 03:09:19 0° 348° (NNW) 4,653 ? -13.7°
Reaches altitude 10° 03:12:51 10° 360° (N) 3,664 ? -13.5°
Maximum altitude 03:20:13 29° 57° (ENE) 2,492 ? -13.1°
Drops below altitude 10° 03:27:31 10° 114° (ESE) 3,630 ? -12.6°
Sets 03:30:57 0° 126° (SE) 4,602 ? -12.4°
